This demonstration page uses our WeatherBlox Daily Observations layout. Learn more.

Left ArrowRight Arrow

40.92945, -100.16068

Hourly Observations for October 1, 2021

Temp ( °F °C ) Dew Point ( °F °C ) Humidity (%) Winds ( mph kmh ) Pressure ( in mb ) Visibility ( mi km ) Precip ( " mm )
12:15 am 00:15 Cloudy 58 14.5 55 12.5 88 88 NW 5 7 30.10 1019 10 16 N/A
12:35 am 00:35 Cloudy 58 14.5 55 12.5 88 88 NW 6 9 30.09 1019 10 16 N/A
12:55 am 00:55 Cloudy 58 14.5 54 12.4 87 87 NNW 7 11 30.09 1019 10 16 N/A
1:15 am 01:15 Cloudy 58 14.2 54 12.4 89 89 NW 8 13 30.09 1019 10 16 N/A
1:35 am 01:35 Cloudy 58 14.2 54 12.3 88 88 NW 8 13 30.09 1019 10 16 N/A
1:55 am 01:55 Cloudy 58 14.2 54 12.4 89 89 NW 8 13 30.09 1019 10 16 N/A
2:15 am 02:15 Cloudy 58 14.2 55 12.5 90 90 NW 7 11 30.08 1019 10 16 N/A
2:35 am 02:35 Cloudy 58 14.2 55 12.5 90 90 NW 6 9 30.08 1019 10 16 N/A
2:55 am 02:55 Cloudy 58 14.2 55 12.7 91 91 NW 5 7 30.08 1019 10 16 N/A
3:15 am 03:15 Cloudy 58 14.3 55 12.8 91 91 NW 6 9 30.07 1018 10 16 N/A
3:35 am 03:35 Cloudy 58 14.5 55 13 91 91 WNW 6 9 30.07 1018 10 16 N/A
3:55 am 03:55 Cloudy 58 14.4 55 13 91 91 WNW 5 7 30.07 1018 10 16 N/A
4:15 am 04:15 Cloudy 58 14.5 55 13 91 91 WNW 6 9 30.06 1018 10 16 N/A
4:35 am 04:35 Cloudy 58 14.5 55 12.8 90 90 NW 8 13 30.06 1018 10 16 N/A
4:55 am 04:55 Cloudy 58 14.5 55 13 91 91 W 5 7 30.07 1018 10 16 N/A
5:15 am 05:15 Cloudy 58 14.5 55 13 91 91 NW 5 7 30.07 1018 10 16 N/A
5:35 am 05:35 Cloudy 58 14.5 55 13 91 91 NNW 5 7 30.07 1018 10 16 N/A
5:55 am 05:55 Cloudy 58 14.5 55 13 91 91 NW 6 9 30.07 1018 10 16 N/A
6:15 am 06:15 Cloudy 58 14.5 55 13 91 91 NW 6 9 30.07 1018 10 16 N/A
6:35 am 06:35 Cloudy 58 14.6 55 13 90 90 W 5 7 30.09 1019 10 16 N/A
6:55 am 06:55 Cloudy 58 14.6 55 12.7 88 88 W 6 9 30.09 1019 10 16 N/A
7:15 am 07:15 Cloudy 58 14.5 55 12.6 88 88 WNW 6 9 30.08 1019 10 16 N/A
7:35 am 07:35 Cloudy 58 14.2 55 12.5 90 90 WNW 7 11 30.08 1019 10 16 N/A
7:55 am 07:55 Cloudy 57 14 54 12.3 90 90 W 7 11 30.08 1019 10 16 N/A
8:15 am 08:15 Cloudy 57 14 54 12.2 89 89 WNW 6 9 30.08 1019 10 16 N/A
8:35 am 08:35 Cloudy 58 14.7 54 12 84 84 NW 10 17 30.08 1019 10 16 N/A
8:55 am 08:55 Partly Cloudy 59 14.9 53 11.7 81 81 WNW 13 20 30.08 1019 10 16 N/A
9:15 am 09:15 Sunny 60 15.5 54 12 80 80 WNW 12 19 30.07 1018 10 16 N/A
9:35 am 09:35 Sunny 61 16 54 12.2 78 78 WNW 12 19 30.07 1018 10 16 N/A
9:55 am 09:55 Mostly Cloudy 60 15.8 55 12.5 81 81 NW 9 15 30.08 1019 10 16 N/A
10:15 am 10:15 Cloudy 61 16.1 55 12.8 81 81 NW 9 15 30.08 1018 10 16 N/A
10:35 am 10:35 Cloudy 62 16.4 55 12.8 79 79 NW 9 15 30.07 1018 10 16 N/A
10:55 am 10:55 Cloudy 62 16.7 56 13.1 79 79 NW 7 11 30.07 1018 10 16 N/A
11:15 am 11:15 Cloudy 62 16.8 56 13.1 79 79 NW 7 11 30.07 1018 10 16 N/A
11:35 am 11:35 Cloudy 64 17.5 56 13.5 78 78 NNW 9 15 30.06 1018 10 16 N/A
11:55 am 11:55 Cloudy 64 17.5 56 13.5 78 78 NNW 6 9 30.06 1018 10 16 N/A
12:15 pm 12:15 Cloudy 64 17.8 56 13.6 77 77 N 9 15 30.05 1018 10 16 N/A
12:35 pm 12:35 Cloudy 65 18.3 57 13.9 76 76 NNW 7 11 30.05 1017 10 16 N/A
12:55 pm 12:55 Cloudy 65 18.5 57 13.8 74 74 N 8 13 30.04 1017 10 16 N/A
1:15 pm 13:15 Cloudy 65 18.6 57 14 75 75 NNW 8 13 30.03 1017 10 16 N/A
1:35 pm 13:35 Cloudy 65 18.6 57 14.1 75 75 NNW 6 9 30.03 1017 10 16 N/A
1:55 pm 13:55 Cloudy 66 19.1 58 14.2 73 73 NNW 9 15 30.02 1017 10 16 N/A
2:15 pm 14:15 Cloudy 67 19.5 57 14.1 71 71 N 7 11 30.02 1016 10 16 N/A
2:35 pm 14:35 Cloudy 67 19.6 58 14.2 71 71 NNW 9 15 30.01 1016 10 16 N/A
2:55 pm 14:55 Cloudy 67 19.5 57 14 71 71 NW 9 15 30.00 1016 10 16 N/A
3:15 pm 15:15 Cloudy 67 19.6 57 14.1 71 71 NNW 7 11 30.00 1016 10 16 N/A
3:35 pm 15:35 Cloudy 67 19.6 57 14.1 71 71 NW 3 6 30.00 1016 10 16 N/A
3:55 pm 15:55 Cloudy 68 20 58 14.4 70 70 N N/A 29.99 1016 10 16 N/A
4:15 pm 16:15 Cloudy 67 19.7 57 13.7 68 68 N N/A 30.00 1016 10 16 N/A
4:35 pm 16:35 Cloudy 68 19.8 58 14.3 71 71 NNE 5 7 30.00 1016 10 16 N/A
4:55 pm 16:55 Cloudy 67 19.6 58 14.5 73 73 ENE 6 9 30.01 1016 10 16 N/A
5:15 pm 17:15 Cloudy 67 19.6 58 14.7 73 73 E 6 9 30.01 1016 10 16 N/A
5:35 pm 17:35 Cloudy 67 19.7 58 14.6 73 73 ENE 5 7 30.00 1016 10 16 N/A
5:55 pm 17:55 Cloudy 67 19.7 58 14.5 72 72 ENE 7 11 29.99 1016 10 16 N/A
6:15 pm 18:15 Cloudy 67 19.2 58 14.5 74 74 E 6 9 30.01 1016 10 16 N/A
6:35 pm 18:35 Cloudy 67 19.4 58 14.5 73 73 E 6 9 30.00 1016 10 16 N/A
6:55 pm 18:55 Partly Cloudy 64 17.9 58 14.5 81 81 ENE 5 7 30.01 1016 10 16 N/A
7:15 pm 19:15 Sunny 63 17.1 58 14.3 84 84 E 3 6 30.02 1016 10 16 N/A
7:35 pm 19:35 Clear 62 16.5 57 14.1 86 86 E 3 6 30.03 1017 10 16 N/A
7:55 pm 19:55 Clear 60 15.8 57 13.9 89 89 N N/A 30.05 1018 10 16 N/A
8:15 pm 20:15 Clear 59 15.2 56 13.3 89 89 NE 3 6 30.05 1018 10 16 N/A
8:35 pm 20:35 Clear 57 14.1 55 12.9 93 93 N N/A 30.06 1018 10 16 N/A
8:55 pm 20:55 Clear 57 14 55 12.8 93 93 N N/A 30.06 1018 10 16 N/A
9:15 pm 21:15 Clear 56 13.5 54 12.4 93 93 N N/A 30.07 1018 10 16 N/A
9:35 pm 21:35 Clear 56 13.3 54 12.4 94 94 N N/A 30.08 1019 10 16 N/A
9:55 pm 21:55 Clear 54 12.1 53 11.4 96 96 NNW 3 6 30.09 1019 10 16 N/A
10:15 pm 22:15 Clear 53 11.6 52 11.1 97 97 N 6 9 30.10 1019 10 16 N/A
10:35 pm 22:35 Clear 54 12 53 11.5 97 97 NNW 3 6 30.09 1019 10 16 N/A
10:55 pm 22:55 Clear 54 12.4 54 12 97 97 N N/A 30.09 1019 10 16 N/A
11:15 pm 23:15 Clear 53 11.5 52 11 97 97 N N/A 30.10 1019 10 16 N/A
11:35 pm 23:35 Clear 53 11.6 52 11.1 97 97 N N/A 30.11 1020 10 16 N/A
11:55 pm 23:55 Clear 51 10.8 51 10.3 97 97 WNW 5 7 30.11 1020 10 16 N/A

Powered by AerisWeather